Overview Statistics Trail Chart Weather Telemetry Raw packets
 

This is the latest recevied weather packets stored in our database for station/object LU3HGB-WX. If no packets are shown the sender has not sent any weather packets the latest 10 day(s).

<< 98 99 100 101 102 103 104 >>
Time Temp. Humidity Pressure Rain* Wind** Luminosity Snow
1787952759 18.33° C 41% 1009 hPa 0 mm - 43 W/m² -
1787952460 18.89° C 41% 1009 hPa 0 mm - 44 W/m² -
1787952159 18.89° C 40% 1009 hPa 0 mm - 45 W/m² -
1787951860 19.44° C 39% 1009 hPa 0 mm - 47 W/m² -
1787951559 20° C 37% 1009 hPa 0 mm - 55 W/m² -
1787951260 20° C 36% 1008 hPa 0 mm - 58 W/m² -
1787950959 20° C 36% 1008 hPa 0 mm - 60 W/m² -
1787950660 20.56° C 36% 1008 hPa 0 mm - 63 W/m² -
1787950359 20.56° C 35% 1008 hPa 0 mm - 132 W/m² -
1787950060 20.56° C 35% 1008 hPa 0 mm - 200 W/m² -
1787949763 21.11° C 35% 1008 hPa 0 mm - 233 W/m² -
1787949460 21.11° C 34% 1008 hPa 0 mm - 248 W/m² -
1787949160 21.67° C 34% 1008 hPa 0 mm - 165 W/m² -
1787948859 22.78° C 34% 1008 hPa 0 mm - 281 W/m² -
1787948559 23.33° C 24% 1007 hPa 0 mm - 302 W/m² -
1787948260 22.78° C 26% 1007 hPa 0 mm - 322 W/m² -
1787947964 22.78° C 27% 1007 hPa 0 mm - 345 W/m² -
1787947660 23.33° C 25% 1007 hPa 0 mm - 361 W/m² -
1787947360 22.78° C 25% 1007 hPa 0 mm - 380 W/m² -
1787947060 22.78° C 25% 1007 hPa 0 mm - 402 W/m² -
1787946760 23.33° C 24% 1007 hPa 0 mm - 422 W/m² -
1787946460 22.78° C 26% 1007 hPa 0 mm - 441 W/m² -
1787946159 22.78° C 26% 1007 hPa 0 mm - 463 W/m² -
1787945861 22.78° C 27% 1007 hPa 0 mm - 478 W/m² -
1787945560 22.78° C 26% 1007 hPa 0 mm - 498 W/m² -

* Rain latest hour (hover to see other rain measurements)
** Current wind speed in m/s (hover to see current wind gust speed)